Total_Precipitation_Accumulation
1.56 1.17 1.97 1.86 1.65 1.40 1.28 1.31 1.36 1.37 1.37 1.31 1.24 1.08 0.92 0.83 0.78 0.72 0.66 0.62 0.61 0.64 0.72 0.75 0.72 0.73 0.65 0.64 0.66 0.72 0.72 0.70 0.70 0.60 0.56 0.58 0.63 0.71 0.87 1.03 1.29 1.67 1.25
1.02 0.92 1.75 1.93 1.74 1.55 1.47 1.34 1.28 1.30 1.29 1.22 1.16 1.07 0.92 0.80 0.74 0.70 0.66 0.62 0.60 0.59 0.64 0.69 0.72 0.77 0.75 0.73 0.80 0.86 0.80 0.75 0.81 0.78 0.84 0.92 0.80 0.77 0.79 0.96 1.38 1.64 1.22
0.83 0.79 1.19 1.79 1.78 1.67 1.61 1.45 1.26 1.20 1.11 1.01 1.01 0.91 0.84 0.75 0.67 0.63 0.64 0.64 0.61 0.57 0.58 0.64 0.72 0.78 0.80 0.85 0.89 0.90 0.89 0.88 0.89 0.91 1.29 1.79 1.34 0.96 0.94 0.99 1.07 1.11 1.10
0.67 0.70 0.93 1.49 1.54 1.51 1.48 1.27 1.16 1.07 0.95 0.95 0.94 0.87 0.82 0.76 0.70 0.67 0.68 0.61 0.58 0.57 0.61 0.66 0.71 0.79 0.83 0.85 0.83 0.80 0.82 0.88 0.98 0.96 1.33 1.77 1.73 1.31 1.12 1.12 1.00 0.99 1.11
0.56 0.69 1.08 1.45 1.42 1.36 1.27 1.15 1.13 1.01 0.90 0.91 0.92 0.89 0.87 0.81 0.77 0.70 0.69 0.67 0.64 0.65 0.68 0.69 0.72 0.77 0.83 0.85 0.82 0.78 0.82 1.02 1.01 0.91 1.16 1.48 1.85 1.51 1.19 1.20 1.11 1.06 1.15
0.71 0.73 0.91 1.17 1.22 1.20 1.02 0.96 1.02 0.95 0.91 0.86 0.81 0.81 0.81 0.77 0.76 0.72 0.74 0.74 0.71 0.71 0.75 0.78 0.82 0.84 0.84 0.85 0.84 0.90 0.99 1.05 0.93 1.07 1.24 1.46 1.73 1.48 1.15 1.09 1.17 1.22 1.31
0.68 0.65 0.72 1.03 1.06 1.04 0.95 0.96 1.06 0.98 0.92 0.82 0.78 0.83 0.84 0.78 0.77 0.76 0.78 0.77 0.75 0.72 0.73 0.79 0.83 0.85 0.80 0.82 0.85 0.91 0.99 0.95 0.98 1.19 1.26 1.44 1.45 1.34 1.13 1.04 1.18 1.25 1.35
0.84 0.73 0.73 1.01 1.04 0.97 0.97 0.95 1.02 1.06 0.94 0.83 0.80 0.78 0.76 0.75 0.73 0.73 0.74 0.76 0.77 0.75 0.77 0.78 0.79 0.76 0.70 0.74 0.77 0.81 0.93 0.88 0.86 1.03 1.14 1.37 1.46 1.35 1.07 1.01 1.09 1.20 1.34
1.17 1.07 0.98 0.99 0.93 0.96 0.99 0.93 1.09 1.22 1.07 0.90 0.81 0.77 0.71 0.68 0.65 0.64 0.66 0.73 0.76 0.79 0.76 0.73 0.77 0.76 0.73 0.72 0.73 0.82 0.94 0.88 0.78 0.93 0.94 1.27 1.51 1.37 1.15 1.04 1.05 1.21 1.33
1.15 1.09 1.08 1.13 1.10 1.09 1.10 1.17 1.31 1.62 1.50 1.12 0.91 0.78 0.73 0.66 0.64 0.67 0.64 0.68 0.79 0.84 0.85 0.83 0.84 0.83 0.85 0.79 0.78 0.88 0.94 0.74 0.72 0.73 0.83 1.09 1.56 1.43 1.18 1.04 1.00 1.04 1.14
0.89 0.92 0.97 1.02 1.02 1.05 1.02 1.18 1.46 1.76 1.81 1.46 1.16 1.00 0.83 0.58 0.60 0.69 0.65 0.78 0.90 0.95 0.98 1.01 1.02 0.95 0.94 0.85 0.86 0.90 0.76 0.56 0.78 0.82 0.90 1.17 1.46 1.44 1.16 0.94 0.85 0.89 0.93
0.68 0.63 0.65 0.67 0.71 0.75 0.81 1.08 1.31 1.38 1.58 1.36 1.30 1.15 1.00 0.93 0.88 0.70 0.68 0.88 1.03 1.05 1.04 1.08 1.12 0.96 0.80 0.65 0.71 0.76 0.54 0.52 0.71 0.76 0.81 1.28 1.61 1.56 1.24 1.01 0.92 0.91 0.87
0.62 0.57 0.51 0.50 0.51 0.58 0.72 0.94 1.15 1.28 1.44 1.44 1.40 1.33 1.33 1.27 0.94 0.78 0.86 0.92 1.00 1.01 0.89 0.92 0.93 0.76 0.61 0.56 0.64 0.60 0.50 0.53 0.65 0.74 0.90 1.30 1.67 1.67 1.32 1.10 1.08 1.01 0.98
0.54 0.61 0.54 0.41 0.40 0.42 0.50 0.70 0.90 1.10 1.29 1.32 1.14 1.06 1.19 1.21 1.01 0.89 1.02 1.11 1.13 1.11 1.09 1.09 1.03 0.87 0.66 0.61 0.63 0.63 0.57 0.62 0.69 0.76 0.92 1.06 1.47 1.65 1.52 1.30 1.26 1.14 1.16
0.54 0.61 0.62 0.53 0.43 0.41 0.46 0.55 0.61 0.89 1.06 1.21 1.25 1.03 1.15 1.19 1.12 1.00 0.94 1.11 1.10 1.13 1.15 1.15 1.15 1.01 0.90 0.79 0.76 0.69 0.73 0.72 0.70 0.67 0.83 0.89 1.14 1.49 1.62 1.57 1.53 1.35 1.34
0.50 0.57 0.59 0.61 0.57 0.52 0.51 0.53 0.52 0.57 0.68 0.79 0.76 0.73 0.92 1.04 1.02 1.02 0.89 0.95 1.04 1.17 1.35 1.36 1.21 1.11 1.03 0.95 0.94 0.89 0.87 0.83 0.80 0.68 0.78 0.85 0.80 0.95 1.24 1.58 1.76 1.62 1.52
0.44 0.49 0.53 0.59 0.64 0.64 0.64 0.72 0.64 0.59 0.64 0.64 0.60 0.61 0.72 0.83 0.86 0.98 0.97 0.94 0.98 1.19 1.38 1.47 1.38 1.27 1.12 1.05 1.04 1.01 0.92 0.94 0.93 0.83 0.83 0.92 0.78 0.75 0.98 1.40 1.75 1.83 1.74
0.40 0.39 0.41 0.45 0.51 0.55 0.61 0.68 0.73 0.73 0.75 0.71 0.74 0.70 0.66 0.80 0.92 1.04 1.08 1.01 1.03 1.21 1.38 1.52 1.58 1.54 1.41 1.32 1.25 1.16 1.11 1.19 1.08 0.97 0.93 0.97 1.06 0.95 0.90 1.07 1.35 1.62 1.84
0.38 0.33 0.32 0.33 0.34 0.37 0.43 0.54 0.65 0.72 0.80 0.87 0.88 0.87 0.85 0.90 0.93 1.07 1.23 1.25 1.24 1.34 1.39 1.40 1.49 1.46 1.49 1.48 1.34 1.31 1.25 1.33 1.32 1.14 1.13 1.15 1.20 1.17 1.03 0.88 0.98 1.03 1.40
0.32 0.31 0.30 0.31 0.31 0.27 0.31 0.45 0.56 0.63 0.71 0.87 0.94 1.01 1.27 1.37 1.16 1.12 1.24 1.26 1.31 1.46 1.48 1.59 1.74 1.62 1.52 1.61 1.51 1.43 1.38 1.35 1.32 1.32 1.35 1.37 1.37 1.25 1.20 1.04 1.03 0.84 0.95
0.18 0.17 0.19 0.24 0.31 0.29 0.26 0.33 0.44 0.53 0.67 0.81 0.98 1.05 1.28 1.39 1.29 1.31 1.31 1.31 1.33 1.39 1.43 1.61 1.94 1.89 1.71 1.62 1.80 1.77 1.68 1.49 1.40 1.40 1.41 1.53 1.54 1.37 1.34 1.39 1.26 1.04 0.86
0.11 0.10 0.12 0.16 0.25 0.32 0.36 0.41 0.53 0.71 0.83 0.93 1.07 1.14 1.25 1.28 1.27 1.21 1.35 1.44 1.39 1.49 1.57 1.72 1.97 2.11 1.90 1.74 2.03 2.41 2.19 1.93 1.61 1.43 1.43 1.37 1.46 1.47 1.40 1.29 1.23 1.16 1.01
0.07 0.08 0.13 0.20 0.33 0.50 0.66 0.88 1.13 1.41 1.53 1.42 1.27 1.35 1.48 1.56 1.52 1.45 1.53 1.66 1.56 1.58 1.64 1.69 1.76 2.13 2.24 2.05 2.02 2.49 2.35 2.20 2.12 1.66 1.35 1.22 1.41 1.52 1.53 1.41 1.31 1.33 1.26
0.15 0.22 0.30 0.42 0.58 0.74 0.95 1.17 1.43 1.66 1.83 1.84 1.86 1.90 1.89 1.84 1.74 1.63 1.63 1.67 1.67 1.72 1.67 1.55 1.69 2.04 2.44 2.44 2.26 2.07 1.94 1.93 2.10 1.99 1.48 1.23 1.31 1.45 1.62 1.52 1.45 1.45 1.41
0.33 0.45 0.55 0.77 0.93 1.07 1.13 1.23 1.45 1.56 1.63 1.74 1.89 1.94 1.93 1.86 1.74 1.60 1.54 1.59 1.65 1.74 1.74 1.78 1.92 2.19 2.42 2.59 2.53 2.28 2.05 1.86 1.56 1.73 1.72 1.52 1.32 1.27 1.35 1.44 1.54 1.51 1.44
0.62 0.84 0.97 1.07 1.16 1.16 1.14 1.16 1.30 1.44 1.53 1.61 1.74 1.80 1.73 1.60 1.57 1.53 1.51 1.48 1.45 1.52 1.62 1.78 2.00 2.13 2.30 2.50 2.51 2.24 2.07 1.94 1.77 1.68 1.55 1.62 1.60 1.35 1.22 1.21 1.32 1.43 1.43